This is the latest recevied weather packets stored in our database for station/object KC3JUG-13. If no packets are shown the sender has not sent any weather packets the latest 10 day(s).
| Time | Temp. | Humidity | Pressure | Rain* | Wind** | Luminosity | Snow |
|---|---|---|---|---|---|---|---|
| 1777766984 | 10° C | 57% | 1014.6 hPa | 0 mm | - | - | - |
| 1777766204 | 10° C | 56% | 1014.3 hPa | 0 mm | - | - | - |
| 1777765424 | 10.56° C | 55% | 1014.2 hPa | 0 mm | - | - | - |
| 1777764644 | 10.56° C | 53% | 1014.1 hPa | 0 mm | - | - | - |
| 1777763864 | 10.56° C | 53% | 1014 hPa | 0 mm | - | - | - |
| 1777763084 | 11.11° C | 51% | 1014 hPa | 0 mm | - | - | - |
| 1777762304 | 11.11° C | 52% | 1014 hPa | 0 mm | - | - | - |
| 1777761524 | 11.11° C | 50% | 1014 hPa | 0 mm | - | - | - |
| 1777760744 | 11.11° C | 50% | 1014.1 hPa | 0 mm | - | - | - |
| 1777759964 | 11.67° C | 50% | 1013.9 hPa | 0 mm | - | - | - |
| 1777759184 | 11.67° C | 50% | 1013.9 hPa | 0 mm | - | - | - |
| 1777758404 | 11.67° C | 52% | 1013.8 hPa | 0 mm | - | - | - |
| 1777757624 | 12.22° C | 47% | 1013.7 hPa | 0 mm | - | - | - |
| 1777756844 | 12.22° C | 48% | 1013.5 hPa | 0 mm | - | - | - |
| 1777756064 | 12.78° C | 47% | 1013.5 hPa | 0 mm | - | - | - |
| 1777755284 | 12.78° C | 51% | 1013.3 hPa | 0 mm | - | - | - |
| 1777754504 | 12.78° C | 47% | 1013.2 hPa | 0 mm | - | - | - |
| 1777753724 | 13.33° C | 47% | 1013.2 hPa | 0 mm | - | - | - |
| 1777752944 | 13.33° C | 45% | 1013.3 hPa | 0 mm | - | - | - |
| 1777752164 | 13.33° C | 48% | 1013.3 hPa | 0 mm | - | - | - |
| 1777751384 | 12.78° C | 48% | 1013.7 hPa | 0 mm | - | - | - |
| 1777750604 | 12.22° C | 52% | 1013.9 hPa | 0 mm | - | - | - |
| 1777749824 | 12.22° C | 51% | 1014.2 hPa | 0 mm | - | - | - |
| 1777749044 | 12.78° C | 48% | 1014.3 hPa | 0 mm | - | - | - |
| 1777748264 | 12.78° C | 48% | 1014.4 hPa | 0 mm | - | - | - |
* Rain latest hour (hover to see other rain measurements)
** Current wind speed in m/s (hover to see current wind gust speed)